Location: Hamayl? Da??
(36.7028°N, 30.1716°E)
Time: 07:47:49
(UTC+00:00)

BREEZE-M DEB (TANK) - Pass Details

Date: 04 August 2024
Orbit: 317 x 14881 km, 49.5° (Epoch: 10 September)

Event Time Altitude Azimuth Distance (km) Brightness Sun altitude
Rises 17:03:33 0° 297° (WNW) 11,372 12.1 -1.0°
Reaches altitude 10° 17:15:38 10° 302° (WNW) 7,645 10.0 -3.3°
Maximum altitude 17:32:42 58° 20° (NNE) 1,428 4.5 -6.4°
Drops below altitude 10° 17:37:03 10° 101° (E) 2,105 4.7 -7.1°
Enters shadow 17:37:21 - 102° (ESE) 2,223 4.8 -7.2°
